Hourly Weather Goes

Today, 18 May, Tuesday

Time Temperature Precipitation Wind Pressure Humidity
00:00 +9°C° 0.7 mm 5 mps 756 mmHg 93%
01:00 +9°C° 0.3 mm 5 mps 756 mmHg 93%
02:00 +9°C° 0.3 mm 5 mps 756 mmHg 93%
03:00 +9°C° 0.3 mm 6 mps 756 mmHg 92%
04:00 +9°C° 0 mm 5 mps 756 mmHg 91%
05:00 +9°C° 0 mm 5 mps 757 mmHg 90%
06:00 +10°C° 0 mm 4 mps 758 mmHg 88%
07:00 +10°C° 0.1 mm 5 mps 758 mmHg 81%
08:00 +12°C° 0.1 mm 5 mps 758 mmHg 75%
09:00 +13°C° 0.1 mm 6 mps 759 mmHg 68%
10:00 +13°C° 0 mm 6 mps 759 mmHg 65%
11:00 +13°C° 0 mm 6 mps 759 mmHg 62%
12:00 +14°C° 0 mm 6 mps 759 mmHg 59%
13:00 +14°C° 0 mm 6 mps 760 mmHg 59%
14:00 +14°C° 0 mm 6 mps 760 mmHg 59%
15:00 +14°C° 0 mm 5 mps 760 mmHg 59%
16:00 +13°C° 0 mm 5 mps 760 mmHg 64%
17:00 +13°C° 0 mm 4 mps 760 mmHg 69%
18:00 +12°C° 0 mm 4 mps 761 mmHg 75%
19:00 +11°C° 0.1 mm 4 mps 761 mmHg 80%
20:00 +10°C° 0.1 mm 4 mps 761 mmHg 86%
21:00 +8°C° 0.1 mm 4 mps 761 mmHg 92%
22:00 +8°C° 0.1 mm 4 mps 761 mmHg 93%
23:00 +8°C° 0.1 mm 4 mps 761 mmHg 93%

Tomorrow, 19 May, Wednesday

Time Temperature Precipitation Wind Pressure Humidity
00:00 +7°C° 0.1 mm 5 mps 761 mmHg 94%
01:00 +7°C° 0.1 mm 5 mps 761 mmHg 94%
02:00 +7°C° 0.1 mm 5 mps 761 mmHg 94%
03:00 +7°C° 0.1 mm 5 mps 761 mmHg 94%
04:00 +8°C° 0.4 mm 5 mps 761 mmHg 93%
05:00 +8°C° 0.4 mm 5 mps 761 mmHg 93%
06:00 +8°C° 0.4 mm 5 mps 761 mmHg 93%
07:00 +8°C° 0.6 mm 5 mps 761 mmHg 92%
08:00 +8°C° 0.6 mm 5 mps 761 mmHg 91%
09:00 +8°C° 0.6 mm 5 mps 761 mmHg 91%
10:00 +9°C° 0.3 mm 5 mps 762 mmHg 87%
11:00 +10°C° 0.3 mm 5 mps 762 mmHg 83%
12:00 +12°C° 0.3 mm 4 mps 762 mmHg 79%
13:00 +13°C° 0.1 mm 4 mps 762 mmHg 76%
14:00 +13°C° 0.1 mm 4 mps 762 mmHg 73%
15:00 +13°C° 0.1 mm 4 mps 762 mmHg 69%
16:00 +13°C° 0 mm 4 mps 763 mmHg 71%
17:00 +12°C° 0 mm 4 mps 763 mmHg 73%
18:00 +12°C° 0 mm 4 mps 763 mmHg 75%
19:00 +10°C° 0 mm 3 mps 764 mmHg 80%
20:00 +9°C° 0 mm 3 mps 764 mmHg 84%
21:00 +8°C° 0 mm 3 mps 765 mmHg 89%
22:00 +8°C° 0 mm 2 mps 765 mmHg 89%
23:00 +8°C° 0 mm 2 mps 765 mmHg 90%

Day after tomorrow, 20 May, Thursday

Time Temperature Precipitation Wind Pressure Humidity
00:00 +8°C° 0 mm 2 mps 766 mmHg 90%
01:00 +7°C° 0 mm 2 mps 766 mmHg 89%
02:00 +7°C° 0 mm 2 mps 766 mmHg 89%
03:00 +7°C° 0 mm 2 mps 766 mmHg 89%
04:00 +8°C° 0 mm 2 mps 767 mmHg 86%
05:00 +9°C° 0 mm 2 mps 767 mmHg 83%
06:00 +10°C° 0 mm 2 mps 767 mmHg 80%
07:00 +12°C° 0 mm 2 mps 767 mmHg 75%
08:00 +13°C° 0 mm 3 mps 767 mmHg 69%
09:00 +14°C° 0 mm 3 mps 768 mmHg 64%
10:00 +14°C° 0 mm 4 mps 768 mmHg 60%
11:00 +15°C° 0 mm 4 mps 768 mmHg 56%
12:00 +15°C° 0 mm 5 mps 768 mmHg 51%
13:00 +15°C° 0 mm 5 mps 768 mmHg 52%
14:00 +15°C° 0 mm 4 mps 767 mmHg 52%
15:00 +15°C° 0 mm 4 mps 767 mmHg 53%
16:00 +14°C° 0 mm 4 mps 767 mmHg 57%
17:00 +14°C° 0 mm 4 mps 767 mmHg 61%
18:00 +13°C° 0 mm 4 mps 767 mmHg 65%
19:00 +12°C° 0 mm 4 mps 766 mmHg 68%
20:00 +11°C° 0 mm 3 mps 766 mmHg 71%
21:00 +10°C° 0 mm 3 mps 765 mmHg 74%
22:00 +10°C° 0 mm 3 mps 765 mmHg 72%
23:00 +10°C° 0 mm 4 mps 764 mmHg 69%

21 May, Friday

Time Temperature Precipitation Wind Pressure Humidity
00:00 +10°C° 0 mm 4 mps 764 mmHg 67%
01:00 +10°C° 0 mm 5 mps 763 mmHg 68%
02:00 +10°C° 0 mm 5 mps 762 mmHg 68%
03:00 +10°C° 0 mm 6 mps 762 mmHg 68%
04:00 +10°C° 0 mm 6 mps 761 mmHg 69%
05:00 +10°C° 0 mm 7 mps 760 mmHg 70%
06:00 +10°C° 0 mm 7 mps 760 mmHg 71%
07:00 +11°C° 0.1 mm 7 mps 759 mmHg 71%
08:00 +11°C° 0.1 mm 7 mps 759 mmHg 71%
09:00 +12°C° 0.1 mm 7 mps 758 mmHg 72%
10:00 +12°C° 0.4 mm 7 mps 758 mmHg 76%
11:00 +12°C° 0.4 mm 7 mps 757 mmHg 80%
12:00 +11°C° 0.4 mm 7 mps 757 mmHg 84%
13:00 +11°C° 0.3 mm 7 mps 756 mmHg 86%
14:00 +11°C° 0.3 mm 7 mps 756 mmHg 87%
15:00 +11°C° 0.3 mm 7 mps 755 mmHg 88%
16:00 +11°C° 0.1 mm 6 mps 755 mmHg 83%
17:00 +13°C° 0.1 mm 6 mps 754 mmHg 79%
18:00 +13°C° 0.1 mm 6 mps 754 mmHg 74%
19:00 +11°C° 0 mm 6 mps 753 mmHg 77%
20:00 +10°C° 0 mm 6 mps 753 mmHg 81%
21:00 +8°C° 0 mm 6 mps 753 mmHg 84%
22:00 +8°C° 0 mm 6 mps 753 mmHg 83%
23:00 +8°C° 0 mm 7 mps 752 mmHg 81%

22 May, Saturday

Time Temperature Precipitation Wind Pressure Humidity
00:00 +7°C° 0 mm 8 mps 752 mmHg 79%
01:00 +7°C° 0.2 mm 9 mps 752 mmHg 78%
02:00 +7°C° 0.2 mm 10 mps 752 mmHg 77%
03:00 +8°C° 0.2 mm 10 mps 751 mmHg 76%
04:00 +8°C° 0.1 mm 11 mps 751 mmHg 76%
05:00 +8°C° 0.1 mm 11 mps 751 mmHg 75%
06:00 +8°C° 0.1 mm 11 mps 751 mmHg 75%
07:00 +8°C° 0.1 mm 11 mps 751 mmHg 74%
08:00 +9°C° 0.1 mm 12 mps 750 mmHg 74%
09:00 +9°C° 0.1 mm 12 mps 750 mmHg 73%
10:00 +9°C° 0.4 mm 12 mps 750 mmHg 75%
11:00 +9°C° 0.4 mm 13 mps 750 mmHg 78%
12:00 +9°C° 0.4 mm 13 mps 749 mmHg 80%
13:00 +9°C° 0.1 mm 13 mps 749 mmHg 78%
14:00 +10°C° 0.1 mm 13 mps 749 mmHg 77%
15:00 +12°C° 0.1 mm 13 mps 749 mmHg 75%
16:00 +10°C° 0.2 mm 12 mps 749 mmHg 76%
17:00 +10°C° 0.2 mm 12 mps 749 mmHg 77%
18:00 +11°C° 0.2 mm 11 mps 749 mmHg 79%
19:00 +9°C° 0 mm 11 mps 750 mmHg 80%
20:00 +9°C° 0 mm 11 mps 750 mmHg 81%
21:00 +8°C° 0 mm 10 mps 751 mmHg 82%
22:00 +8°C° 0.1 mm 10 mps 751 mmHg 80%
23:00 +9°C° 0.1 mm 11 mps 751 mmHg 77%

23 May, Sunday

Time Temperature Precipitation Wind Pressure Humidity
00:00 +9°C° 0.1 mm 11 mps 751 mmHg 75%
01:00 +8°C° 0.1 mm 10 mps 751 mmHg 78%
02:00 +8°C° 0.1 mm 10 mps 751 mmHg 80%
03:00 +8°C° 0.1 mm 10 mps 751 mmHg 83%
04:00 +8°C° 0.3 mm 9 mps 752 mmHg 84%
05:00 +7°C° 0.3 mm 9 mps 752 mmHg 85%
06:00 +7°C° 0.3 mm 9 mps 752 mmHg 86%
07:00 +7°C° 0.5 mm 9 mps 753 mmHg 85%
08:00 +7°C° 0.5 mm 10 mps 754 mmHg 84%
09:00 +7°C° 0.5 mm 11 mps 755 mmHg 83%
10:00 +8°C° 0.1 mm 10 mps 756 mmHg 78%
11:00 +9°C° 0.1 mm 10 mps 757 mmHg 74%
12:00 +9°C° 0.1 mm 10 mps 757 mmHg 69%
13:00 +11°C° 0 mm 10 mps 758 mmHg 66%
14:00 +11°C° 0 mm 10 mps 758 mmHg 64%
15:00 +12°C° 0 mm 10 mps 759 mmHg 61%
16:00 +11°C° 0.1 mm 10 mps 759 mmHg 65%
17:00 +11°C° 0.1 mm 10 mps 759 mmHg 68%
18:00 +9°C° 0.1 mm 10 mps 759 mmHg 72%
19:00 +10°C° 0.2 mm 9 mps 760 mmHg 74%
20:00 +8°C° 0.2 mm 9 mps 760 mmHg 76%
21:00 +9°C° 0.2 mm 8 mps 760 mmHg 79%
22:00 +8°C° 0.4 mm 9 mps 760 mmHg 83%
23:00 +7°C° 0.4 mm 9 mps 759 mmHg 87%
Show more